C/2016 B1 ( NEOWISE )

Japanese version
Home page
Updated on November 14, 2016

---------------------------------------------------------------------

* Profile

Discovery Date January 17, 2016
Magnitude 19 mag
Discoverer Near-Earth Object Wide-field Infrared Survey Explorer

* Pictures

* Orbital Elements

Epoch 2016 Nov. 28.0 TT = JDT 2457720.5
T 2016 Dec. 4.72290 TT                                  MPCW
q   3.2060980            (2000.0)            P               Q
z  +0.0022842      Peri.    8.56177     -0.53482118     +0.58734639
 +/-0.0000064      Node   231.95337     -0.81372651     -0.55168578
e   0.9926766      Incl.   50.47533     -0.22763011     +0.59217144
From 108 observations 2016 Jan. 17-Aug. 23, mean residual 0".5.

* Finding Charts

* Magnitudes Graph

        m1 = 3.0 + 5 log d + 20.0 log r

---------------------------------------------------------------------

The orbital elements are published on M.P.E.C. 2016-U66.
The charts are made with StellaNavigator Ver.10 (AstroArts).
The magnitudes graphs are made with Comet for Windows.

---------------------------------------------------------------------

Copyright(C) Seiichi Yoshida (comet@aerith.net). All rights reserved.